SCP
0 0 0 0 0 0 0 0 0 0 0 0 0 0 0 0 0 0 0 0 0 0 0 0 0 0 0 0 0 0 0 0 0 0 0 0 0 0 0 0 0 0 0 0
0 0 0 0 0 0 0 0 0 0 0 0 0 0 0 0 0 0 0 0 0 0 0 0 0 0 0 0 0 0 0 0 0 0 0 0 0 0 0 0 0 0 0 0
0 0 0 0 0 0 0 0 0 0 0 0 0 0 0 0 0 0 0 0 0 0 0 0 0 0 0 0 0 0 0 0 0 0 0 0 0 0 0 0 0 0 0 0
0 0 0 0 0 0 0 0 0 0 0 0 0 0 0 0 0 0 0 0 0 0 0 0 0 0 0 0 0 0 0 0 0 0 0 0 0 0 0 0 0 0 0 0
0 0 0 0 0 0 0 0 0 0 0 0 0 0 0 0 0 0 0 0 0 0 0 0 0 0 0 0 0 0 0 0 0 0 0 0 0 0 0 0 0 0 0 0
0 0 0 0 0 0 0 0 0 0 0 0 0 0 0 0 0 0 0 0 0 0 0 0 0 0 0 0 0 0 0 0 0 0 0 0 0 0 0 0 0 0 0 0
0 0 0 0 0 0 0 0 0 0 0 0 0 0 0 0 0 0 0 0 0 0 0 0 0 0 0 0 0 0 0 0 0 0 0 0 0 0 0 0 0 0 0 0
0 0 0 0 0 0 0 0 0 0 0 0 0 0 0 0 0 0 0 0 0 0 0 0 0 0 0 0 0 0 0 0 0 0 0 0 0 0 0 0 0 0 0 0
0 0 0 0 0 0 0 0 0 0 0 0 0 0 0 0 0 0 0 0 0 0 0 0 0 0 0 0 0 0 0 0 0 0 0 0 0 0 0 0 0 0 0 0
0 0 0 0 0 0 0 0 0 0 0 0 0 0 0 0 0 0 0 0 0 0 0 0 0 0 0 0 0 0 0 0 0 0 0 0 0 0 0 0 0 0 0 0
0 0 0 0 0 0 -0 0 0 0 0 0 0 0 0 0 0 0 0 0 0 0 0 0 0 0 0 0 0 0 0 0 0 0 0 0 0 0 0 0 0 0 0 0
0 0 0 0 0 0 -0 -0 0 0 0 0 0 0 0 0 0 0 0 0 0 0 0 0 0 0 0 0 0 0 0 0 0 0 0 0 0 0 0 0 0 0 0 0
0 0 0 0 0 0 0 -0 0 0 0 0 0 0 0 0 0 0 0 0 0 0 0 0 0 0 0 0 0 0 0 0 0 0 0 0 0 0 0 0 0 0 0 0
0 0 0 0 0 0 0 0 0 0 0 0 0 0 0 0 0 0 0 0 0 0 0 0 0 0 0 0 0 0 0 0 0 0 0 0 0 0 0 0 0 0 0 0
0 0 0 0 0 0 0 0 0 0 0 0 0 0 0 0 0 0 0 0 0 0 0 0 0 0 0 0 0 0 0 0 0 0 0 0 0 0 0 0 0 0 0 0
0 0 0 0 0 0 0 0 0 0 0 0 0 0 0 0 0 0 0 0 0 0 0 0 0 0 0 0 0 0 0 0 0 0 0 0 0 0 0 0 0 0 0 0
0 0 0 0 0 0 0 0 0 0 0 0 0 0 0 0 0 0 0 0 0 0 0 0 0 0 0 0 0 0 0 0 0 0 0 0 0 0 0 0 0 0 0 -0
0 0 0 0 0 0 0 0 0 0 0 0 0 0 0 0 0 0 0 0 0 0 0 0 0 0 0 0 0 0 0 0 0 0 0 0 0 0 0 0 0 0 0 -0
0 0 0 0 0 0 0 0 0 0 0 0 0 0 0 0 0 0 0 0 0 0 0 0 0 0 0 0 0 0 0 0 0 0 0 0 0 0 0 0 -0 -0 -0 -0
0 0 0 0 0 0 0 0 0 0 0 0 0 0 0 0 0 0 0 0 0 0 0 0 0 0 0 0 0 0 0 0 0 0 0 0 0 0 0 0 0 0 0 0
0 0 0 0 0 0 0 0 0 0 0 0 0 0 0 0 0 0 0 0 0 0 0 0 0 0 0 0 0 0 0 0 0 0 0 0 0 0 0 0 0 0 0 0
0 0 0 0 0 0 0 0 0 0 0 0 0 0 0 0 0 0 0 0 0 0 0 0 0 0 0 0 0 0 0 0 0 0 0 0 0 0 0 0 0 0 0 0
0 0 0 0 0 0 0 0 0 0 0 0 0 0 0 0 0 0 0 0 0 0 0 0 0 0 0 0 0 0 0 0 0 0 0 0 0 0 0 0 0 0 0 0
0 0 0 0 0 0 0 0 0 0 0 0 0 0 0 0 0 0 0 0 0 0 0 0 0 0 0 0 0 0 0 0 0 0 0 0 0 0 0 0 0 0 0 0
0 0 0 0 0 0 0 0 0 0 0 0 0 0 0 0 0 0 0 0 0 0 0 0 0 0 0 0 0 0 0 0 0 0 0 0 0 0 0 0 0 0 0 0
0 0 0 0 0 0 0 0 0 0 0 0 0 0 0 0 0 0 0 0 0 0 0 0 0 0 0 0 0 0 0 0 0 0 0 0 0 0 0 0 0 0 0 0
0 0 0 0 0 0 0 0 0 0 0 0 0 0 0 0 0 0 0 0 0 0 0 0 0 0 0 0 0 0 0 0 0 0 0 0 0 0 0 0 0 0 0 0
Wind_Speed_500mb
5 8 7 7 10 10 7 9 12 16 20 35 35 26 35 36 31 28 26 28 29 31 48 56 46 40 45 34 33 29 32 36 38 19 20 18 16 26 34 37 35 35 34 29
5 6 14 6 28 20 7 4 8 15 4 16 36 33 36 38 37 35 33 27 31 36 35 42 43 48 41 38 27 17 28 29 26 27 48 22 13 16 13 22 30 33 35 34
3 13 10 12 17 11 11 3 7 11 14 28 31 36 37 41 44 42 44 44 41 39 39 36 33 33 37 31 27 23 19 24 29 44 35 38 33 30 29 28 25 20 24 21
2 8 5 10 4 8 6 11 8 7 23 33 38 36 40 45 52 52 52 52 48 50 50 45 41 37 35 30 27 21 17 14 19 24 29 33 38 17 24 28 28 26 20 25
5 3 8 5 4 8 9 9 4 16 27 40 55 53 31 44 53 56 55 55 52 48 48 46 42 37 37 37 35 32 31 26 21 20 21 21 29 22 16 27 34 30 26 18
5 7 11 9 3 17 2 10 9 17 36 52 50 14 10 49 55 50 49 50 50 48 46 43 39 30 28 32 28 27 25 21 16 12 9 12 18 14 9 9 10 14 25 15
2 3 10 10 29 5 6 11 24 45 39 43 11 17 53 60 58 54 53 50 46 44 38 33 27 16 15 15 12 17 16 13 11 10 7 5 5 4 5 4 8 9 9 10
3 5 3 28 15 6 6 24 32 44 57 50 35 56 67 66 61 56 52 49 42 34 28 25 16 7 6 3 4 4 4 4 4 4 4 4 5 4 4 6 7 9 10 12
11 9 7 15 12 21 16 15 21 48 54 48 58 75 71 67 61 56 49 44 34 23 21 17 11 4 2 3 5 5 6 8 9 9 9 9 9 9 9 8 10 11 12 13
5 7 8 11 13 19 13 12 31 42 53 48 65 73 68 62 53 46 41 35 26 19 15 9 4 2 4 9 11 9 8 5 4 6 7 8 10 11 13 15 16 16 19 20
5 10 7 4 8 12 14 7 19 36 50 52 59 68 64 57 53 41 34 27 19 10 2 3 3 1 2 4 6 10 10 8 6 4 2 2 3 6 8 9 12 17 23 27
9 9 5 6 4 8 17 15 21 35 40 41 55 69 59 53 39 32 35 27 18 13 14 11 8 4 3 6 9 9 12 12 9 7 6 6 6 6 7 11 16 20 22 23
4 2 6 8 14 18 19 24 24 29 31 41 64 63 61 61 43 44 34 23 15 12 13 14 13 12 13 14 13 11 10 12 12 9 9 9 9 9 9 11 12 14 18 24
4 4 5 3 5 26 25 32 31 26 25 37 53 55 59 53 52 40 25 15 14 14 14 13 13 16 19 17 15 13 12 12 12 13 14 13 14 16 16 14 14 18 21 25
13 11 13 12 10 14 27 29 40 39 32 38 47 49 54 52 45 34 23 19 18 17 16 16 16 20 22 20 16 14 12 10 10 10 12 14 16 18 19 21 23 24 24 27
5 7 6 9 14 13 13 33 42 48 47 47 49 52 48 42 36 29 28 29 25 19 17 18 18 19 22 22 19 15 12 9 6 6 8 11 14 18 22 26 29 32 37 42
12 13 12 13 13 11 8 23 39 43 48 50 54 54 52 46 41 36 37 36 26 18 13 13 18 21 22 23 23 18 13 9 5 2 3 6 12 18 23 28 33 37 42 48
13 10 6 8 9 15 15 15 24 30 32 35 39 48 52 59 51 43 41 46 45 38 30 20 22 22 24 27 27 25 19 14 7 4 1 5 10 17 23 29 34 40 43 47
12 11 4 3 8 7 15 19 20 16 16 21 33 35 33 42 57 62 59 59 58 54 46 38 33 30 30 31 32 32 27 22 14 8 7 4 11 18 23 28 35 41 46 51
15 12 9 7 7 9 10 14 16 16 19 24 28 38 43 50 43 48 53 61 66 66 57 46 43 44 39 40 40 38 33 29 22 16 12 12 16 19 24 28 34 39 44 50
18 14 12 9 7 8 9 10 14 14 21 24 24 27 35 45 58 51 54 60 54 56 63 65 60 66 59 53 53 47 44 39 33 24 17 12 16 20 24 29 33 36 42 48
19 20 14 10 15 11 12 11 18 16 15 17 20 24 30 32 38 46 53 59 55 54 61 67 66 68 72 70 68 58 51 47 41 31 24 20 21 23 27 32 33 36 40 45
21 18 20 15 15 12 16 15 12 13 16 20 24 27 29 30 32 35 40 40 44 47 54 62 67 75 74 78 75 68 58 54 47 37 28 24 25 30 33 35 37 37 38 42
29 23 17 13 15 13 12 10 8 14 22 29 33 36 40 44 48 50 50 49 49 47 47 51 61 60 62 83 87 72 60 63 52 42 35 31 31 33 35 36 38 37 38 41
20 18 17 19 18 14 12 14 19 23 32 30 26 26 27 31 39 38 36 39 41 44 50 52 54 56 64 71 88 79 57 54 46 38 37 37 38 37 37 39 41 39 40 41
24 19 15 19 18 21 22 20 20 23 17 14 15 15 21 27 26 26 27 30 34 39 44 50 43 45 50 60 66 73 59 47 44 37 35 37 38 40 42 44 46 42 39 43
26 25 24 23 25 28 23 17 14 8 6 15 14 11 17 20 15 16 17 13 21 27 28 28 32 31 38 51 53 54 43 34 36 33 30 31 34 38 41 41 39 37 40 43
Wind_Direction_500mb
238 286 138 49 7 316 204 174 149 187 184 189 178 162 147 145 147 146 149 149 170 166 161 174 170 180 202 223 220 218 206 182 186 183 192 209 243 254 253 254 253 255 254 253
293 241 75 44 14 5 53 91 62 132 72 131 140 144 142 143 141 140 143 153 148 156 166 171 181 190 200 204 204 184 206 220 224 223 241 231 262 289 270 263 263 249 252 255
240 327 54 23 352 323 289 159 143 158 196 146 144 155 154 141 137 135 138 149 142 140 140 141 149 161 171 182 191 196 198 208 223 234 239 243 255 275 255 260 267 272 260 265
156 15 115 217 39 284 80 9 356 53 139 143 139 138 143 148 146 139 138 134 134 134 133 132 132 134 137 148 154 164 173 189 203 224 226 236 209 267 289 272 255 259 291 282
122 39 307 54 46 355 359 317 342 138 128 130 125 120 115 156 153 145 141 136 131 129 125 122 117 117 124 125 125 130 129 138 141 160 186 198 218 240 290 275 251 255 278 291
137 127 201 208 121 346 223 316 179 149 147 144 142 143 145 155 156 148 145 146 137 131 125 117 109 111 112 107 111 112 110 115 121 136 170 212 240 255 252 284 277 229 246 257
56 167 292 303 321 0 121 246 174 164 155 157 150 144 152 161 156 153 146 144 147 142 137 128 123 120 108 99 102 96 99 107 115 118 114 102 78 67 79 162 137 145 201 225
69 79 269 345 354 16 289 320 184 175 164 160 142 149 158 159 157 154 147 146 152 153 143 131 133 129 120 141 143 164 197 226 204 187 179 170 182 179 148 150 162 179 206 225
173 219 263 327 294 324 295 271 200 182 174 159 152 157 161 159 159 161 159 158 160 168 160 148 143 151 198 262 261 244 228 218 220 224 228 234 246 246 245 235 217 213 215 238
60 288 327 353 10 12 3 241 204 187 172 167 159 161 162 162 169 166 161 162 165 164 154 148 163 197 159 167 192 211 223 211 188 196 214 242 249 245 245 258 270 274 279 283
300 297 323 317 59 75 79 115 175 175 174 174 171 166 167 168 169 171 173 170 171 177 205 301 286 278 120 114 163 178 178 177 178 163 166 218 263 296 301 286 274 279 285 291
212 208 204 223 196 153 146 147 174 173 170 181 185 173 174 170 177 199 197 190 200 237 267 265 254 242 201 165 151 146 147 143 133 118 110 90 58 25 350 333 330 323 315 305
164 167 241 277 215 203 188 177 181 192 201 185 184 184 186 181 197 192 190 199 219 217 203 203 203 194 180 165 152 142 131 121 117 109 91 77 74 71 53 22 357 339 328 319
219 280 241 315 252 213 212 199 189 185 188 198 194 195 194 196 181 186 195 213 219 221 216 210 203 189 175 164 156 148 133 115 106 99 89 75 62 53 46 37 24 11 356 345
243 249 263 273 278 249 230 221 208 198 188 191 197 196 191 188 192 193 199 203 201 202 209 211 206 192 183 176 167 155 138 124 107 86 72 61 51 41 31 23 16 9 359 351
194 218 243 265 264 274 255 222 214 206 197 194 195 197 201 208 210 209 209 199 196 198 201 206 209 205 202 196 185 172 163 150 123 87 66 52 43 31 20 16 11 7 1 357
243 244 253 268 276 265 277 226 210 217 207 204 199 198 202 209 212 215 212 210 206 196 197 204 209 215 216 211 205 199 190 177 169 140 66 36 25 18 16 14 12 9 6 2
250 243 268 290 236 214 175 171 190 202 209 211 216 214 214 213 214 216 224 226 222 213 215 209 207 213 218 218 217 214 213 211 209 210 277 10 8 4 4 4 3 0 358 354
148 141 119 95 171 167 193 194 188 210 238 242 243 223 223 239 239 235 232 231 231 228 225 216 215 220 225 219 219 219 223 221 222 223 229 290 341 346 348 351 352 352 352 350
167 157 138 110 121 180 213 222 218 223 231 232 234 232 237 231 234 230 235 243 245 248 241 233 237 236 234 226 222 224 226 224 227 236 250 275 297 315 329 334 339 342 343 346
187 192 207 213 199 200 206 217 224 244 248 240 241 246 248 247 240 246 255 236 244 254 248 239 245 246 243 233 226 224 221 220 217 220 232 263 290 291 310 319 323 329 334 336
206 209 217 269 249 246 238 253 254 258 263 262 261 271 260 259 251 248 250 253 256 257 250 243 244 246 244 236 232 229 224 223 221 221 233 253 274 294 302 308 311 317 323 328
219 237 243 251 241 254 268 264 278 285 284 281 277 283 283 279 273 267 264 262 261 259 257 255 255 252 249 232 231 231 231 227 224 228 241 258 278 286 293 301 302 307 312 319
237 237 236 225 227 228 244 256 277 301 296 291 286 283 279 277 273 271 272 271 267 265 266 263 258 257 246 237 230 220 222 229 229 235 244 257 271 281 287 294 294 296 301 310
213 206 222 216 221 234 239 265 271 286 300 300 296 294 291 286 282 287 278 270 267 265 264 266 258 254 245 243 237 223 209 224 230 236 248 256 266 275 282 289 292 289 293 298
196 202 208 210 226 236 249 257 275 297 302 312 319 324 330 308 300 302 290 278 275 272 270 260 255 249 242 243 244 218 195 197 223 235 250 259 265 274 282 287 287 282 292 295
206 215 217 225 238 245 248 260 289 285 314 333 340 344 350 8 1 335 345 327 311 293 283 274 252 248 257 239 222 196 206 202 227 237 251 263 275 281 281 287 286 284 289 294
Wind_Speed_850mb
5 8 7 7 10 10 7 9 12 16 20 35 35 26 35 36 31 28 26 28 29 31 48 56 46 40 45 34 33 29 32 36 38 19 20 18 16 26 34 37 35 35 34 29
5 6 14 6 28 20 7 4 8 15 4 16 36 33 36 38 37 35 33 27 31 36 35 42 43 48 41 38 27 17 28 29 26 27 48 22 13 16 13 22 30 33 35 34
3 13 10 12 17 11 11 3 7 11 14 28 31 36 37 41 44 42 44 44 41 39 39 36 33 33 37 31 27 23 19 24 29 44 35 38 33 30 29 28 25 20 24 21
2 8 5 10 4 8 6 11 8 7 23 33 38 36 40 45 52 52 52 52 48 50 50 45 41 37 35 30 27 21 17 14 19 24 29 33 38 17 24 28 28 26 20 25
5 3 8 5 4 8 9 9 4 16 27 40 55 53 31 44 53 56 55 55 52 48 48 46 42 37 37 37 35 32 31 26 21 20 21 21 29 22 16 27 34 30 26 18
5 7 11 9 3 17 2 10 9 17 36 52 50 14 10 49 55 50 49 50 50 48 46 43 39 30 28 32 28 27 25 21 16 12 9 12 18 14 9 9 10 14 25 15
2 3 10 10 29 5 6 11 24 45 39 43 11 17 53 60 58 54 53 50 46 44 38 33 27 16 15 15 12 17 16 13 11 10 7 5 5 4 5 4 8 9 9 10
3 5 3 28 15 6 6 24 32 44 57 50 35 56 67 66 61 56 52 49 42 34 28 25 16 7 6 3 4 4 4 4 4 4 4 4 5 4 4 6 7 9 10 12
11 9 7 15 12 21 16 15 21 48 54 48 58 75 71 67 61 56 49 44 34 23 21 17 11 4 2 3 5 5 6 8 9 9 9 9 9 9 9 8 10 11 12 13
5 7 8 11 13 19 13 12 31 42 53 48 65 73 68 62 53 46 41 35 26 19 15 9 4 2 4 9 11 9 8 5 4 6 7 8 10 11 13 15 16 16 19 20
5 10 7 4 8 12 14 7 19 36 50 52 59 68 64 57 53 41 34 27 19 10 2 3 3 1 2 4 6 10 10 8 6 4 2 2 3 6 8 9 12 17 23 27
9 9 5 6 4 8 17 15 21 35 40 41 55 69 59 53 39 32 35 27 18 13 14 11 8 4 3 6 9 9 12 12 9 7 6 6 6 6 7 11 16 20 22 23
4 2 6 8 14 18 19 24 24 29 31 41 64 63 61 61 43 44 34 23 15 12 13 14 13 12 13 14 13 11 10 12 12 9 9 9 9 9 9 11 12 14 18 24
4 4 5 3 5 26 25 32 31 26 25 37 53 55 59 53 52 40 25 15 14 14 14 13 13 16 19 17 15 13 12 12 12 13 14 13 14 16 16 14 14 18 21 25
13 11 13 12 10 14 27 29 40 39 32 38 47 49 54 52 45 34 23 19 18 17 16 16 16 20 22 20 16 14 12 10 10 10 12 14 16 18 19 21 23 24 24 27
5 7 6 9 14 13 13 33 42 48 47 47 49 52 48 42 36 29 28 29 25 19 17 18 18 19 22 22 19 15 12 9 6 6 8 11 14 18 22 26 29 32 37 42
12 13 12 13 13 11 8 23 39 43 48 50 54 54 52 46 41 36 37 36 26 18 13 13 18 21 22 23 23 18 13 9 5 2 3 6 12 18 23 28 33 37 42 48
13 10 6 8 9 15 15 15 24 30 32 35 39 48 52 59 51 43 41 46 45 38 30 20 22 22 24 27 27 25 19 14 7 4 1 5 10 17 23 29 34 40 43 47
12 11 4 3 8 7 15 19 20 16 16 21 33 35 33 42 57 62 59 59 58 54 46 38 33 30 30 31 32 32 27 22 14 8 7 4 11 18 23 28 35 41 46 51
15 12 9 7 7 9 10 14 16 16 19 24 28 38 43 50 43 48 53 61 66 66 57 46 43 44 39 40 40 38 33 29 22 16 12 12 16 19 24 28 34 39 44 50
18 14 12 9 7 8 9 10 14 14 21 24 24 27 35 45 58 51 54 60 54 56 63 65 60 66 59 53 53 47 44 39 33 24 17 12 16 20 24 29 33 36 42 48
19 20 14 10 15 11 12 11 18 16 15 17 20 24 30 32 38 46 53 59 55 54 61 67 66 68 72 70 68 58 51 47 41 31 24 20 21 23 27 32 33 36 40 45
21 18 20 15 15 12 16 15 12 13 16 20 24 27 29 30 32 35 40 40 44 47 54 62 67 75 74 78 75 68 58 54 47 37 28 24 25 30 33 35 37 37 38 42
29 23 17 13 15 13 12 10 8 14 22 29 33 36 40 44 48 50 50 49 49 47 47 51 61 60 62 83 87 72 60 63 52 42 35 31 31 33 35 36 38 37 38 41
20 18 17 19 18 14 12 14 19 23 32 30 26 26 27 31 39 38 36 39 41 44 50 52 54 56 64 71 88 79 57 54 46 38 37 37 38 37 37 39 41 39 40 41
24 19 15 19 18 21 22 20 20 23 17 14 15 15 21 27 26 26 27 30 34 39 44 50 43 45 50 60 66 73 59 47 44 37 35 37 38 40 42 44 46 42 39 43
26 25 24 23 25 28 23 17 14 8 6 15 14 11 17 20 15 16 17 13 21 27 28 28 32 31 38 51 53 54 43 34 36 33 30 31 34 38 41 41 39 37 40 43
Wind_Direction_850mb
238 286 138 49 7 316 204 174 149 187 184 189 178 162 147 145 147 146 149 149 170 166 161 174 170 180 202 223 220 218 206 182 186 183 192 209 243 254 253 254 253 255 254 253
293 241 75 44 14 5 53 91 62 132 72 131 140 144 142 143 141 140 143 153 148 156 166 171 181 190 200 204 204 184 206 220 224 223 241 231 262 289 270 263 263 249 252 255
240 327 54 23 352 323 289 159 143 158 196 146 144 155 154 141 137 135 138 149 142 140 140 141 149 161 171 182 191 196 198 208 223 234 239 243 255 275 255 260 267 272 260 265
156 15 115 217 39 284 80 9 356 53 139 143 139 138 143 148 146 139 138 134 134 134 133 132 132 134 137 148 154 164 173 189 203 224 226 236 209 267 289 272 255 259 291 282
122 39 307 54 46 355 359 317 342 138 128 130 125 120 115 156 153 145 141 136 131 129 125 122 117 117 124 125 125 130 129 138 141 160 186 198 218 240 290 275 251 255 278 291
137 127 201 208 121 346 223 316 179 149 147 144 142 143 145 155 156 148 145 146 137 131 125 117 109 111 112 107 111 112 110 115 121 136 170 212 240 255 252 284 277 229 246 257
56 167 292 303 321 0 121 246 174 164 155 157 150 144 152 161 156 153 146 144 147 142 137 128 123 120 108 99 102 96 99 107 115 118 114 102 78 67 79 162 137 145 201 225
69 79 269 345 354 16 289 320 184 175 164 160 142 149 158 159 157 154 147 146 152 153 143 131 133 129 120 141 143 164 197 226 204 187 179 170 182 179 148 150 162 179 206 225
173 219 263 327 294 324 295 271 200 182 174 159 152 157 161 159 159 161 159 158 160 168 160 148 143 151 198 262 261 244 228 218 220 224 228 234 246 246 245 235 217 213 215 238
60 288 327 353 10 12 3 241 204 187 172 167 159 161 162 162 169 166 161 162 165 164 154 148 163 197 159 167 192 211 223 211 188 196 214 242 249 245 245 258 270 274 279 283
300 297 323 317 59 75 79 115 175 175 174 174 171 166 167 168 169 171 173 170 171 177 205 301 286 278 120 114 163 178 178 177 178 163 166 218 263 296 301 286 274 279 285 291
212 208 204 223 196 153 146 147 174 173 170 181 185 173 174 170 177 199 197 190 200 237 267 265 254 242 201 165 151 146 147 143 133 118 110 90 58 25 350 333 330 323 315 305
164 167 241 277 215 203 188 177 181 192 201 185 184 184 186 181 197 192 190 199 219 217 203 203 203 194 180 165 152 142 131 121 117 109 91 77 74 71 53 22 357 339 328 319
219 280 241 315 252 213 212 199 189 185 188 198 194 195 194 196 181 186 195 213 219 221 216 210 203 189 175 164 156 148 133 115 106 99 89 75 62 53 46 37 24 11 356 345
243 249 263 273 278 249 230 221 208 198 188 191 197 196 191 188 192 193 199 203 201 202 209 211 206 192 183 176 167 155 138 124 107 86 72 61 51 41 31 23 16 9 359 351
194 218 243 265 264 274 255 222 214 206 197 194 195 197 201 208 210 209 209 199 196 198 201 206 209 205 202 196 185 172 163 150 123 87 66 52 43 31 20 16 11 7 1 357
243 244 253 268 276 265 277 226 210 217 207 204 199 198 202 209 212 215 212 210 206 196 197 204 209 215 216 211 205 199 190 177 169 140 66 36 25 18 16 14 12 9 6 2
250 243 268 290 236 214 175 171 190 202 209 211 216 214 214 213 214 216 224 226 222 213 215 209 207 213 218 218 217 214 213 211 209 210 277 10 8 4 4 4 3 0 358 354
148 141 119 95 171 167 193 194 188 210 238 242 243 223 223 239 239 235 232 231 231 228 225 216 215 220 225 219 219 219 223 221 222 223 229 290 341 346 348 351 352 352 352 350
167 157 138 110 121 180 213 222 218 223 231 232 234 232 237 231 234 230 235 243 245 248 241 233 237 236 234 226 222 224 226 224 227 236 250 275 297 315 329 334 339 342 343 346
187 192 207 213 199 200 206 217 224 244 248 240 241 246 248 247 240 246 255 236 244 254 248 239 245 246 243 233 226 224 221 220 217 220 232 263 290 291 310 319 323 329 334 336
206 209 217 269 249 246 238 253 254 258 263 262 261 271 260 259 251 248 250 253 256 257 250 243 244 246 244 236 232 229 224 223 221 221 233 253 274 294 302 308 311 317 323 328
219 237 243 251 241 254 268 264 278 285 284 281 277 283 283 279 273 267 264 262 261 259 257 255 255 252 249 232 231 231 231 227 224 228 241 258 278 286 293 301 302 307 312 319
237 237 236 225 227 228 244 256 277 301 296 291 286 283 279 277 273 271 272 271 267 265 266 263 258 257 246 237 230 220 222 229 229 235 244 257 271 281 287 294 294 296 301 310
213 206 222 216 221 234 239 265 271 286 300 300 296 294 291 286 282 287 278 270 267 265 264 266 258 254 245 243 237 223 209 224 230 236 248 256 266 275 282 289 292 289 293 298
196 202 208 210 226 236 249 257 275 297 302 312 319 324 330 308 300 302 290 278 275 272 270 260 255 249 242 243 244 218 195 197 223 235 250 259 265 274 282 287 287 282 292 295
206 215 217 225 238 245 248 260 289 285 314 333 340 344 350 8 1 335 345 327 311 293 283 274 252 248 257 239 222 196 206 202 227 237 251 263 275 281 281 287 286 284 289 294